Reading, PA

7:06 AM EST on November 17, 2019 (GMT -0500)
Reading Regional-Spaatz

Weather History for KRDG - July, 2019

Change the Weather History Date:

Wednesday, July 24, 2019

  Actual Average Record
Temperature  
Mean Temperature 74 °F 75 °F  
Max Temperature 84 °F 85 °F 96 °F (2010)
Min Temperature 64 °F 64 °F 51 °F (1985)
Degree Days  
Heating Degree Days 0 0  
Month to date heating degree days 0  
Since 1 June heating degree days 24  
Since 1 July heating degree days 0  
Cooling Degree Days 9 10  
Month to date cooling degree days 237  
Year to date cooling degree days 486  
Since 1 June cooling degree days 426  
Growing Degree Days 24 (Base 50)    
Moisture  
Dew Point 61 °F    
Average Humidity 70    
Maximum Humidity 100    
Minimum Humidity 34    
Precipitation  
Precipitation 0.00 in 0.15 in 1.95 in (2017)
Month to date precipitation 3.53  
Year to date precipitation 24.33  
Sea Level Pressure  
Sea Level Pressure 29.97 in    
Wind  
Wind Speed 3 mph (NNW)    
Max Wind Speed 12 mph    
Max Gust Speed 17 mph    
Visibility 10 miles    
Events Rain    
T = Trace of Precipitation, MM = Missing Value Source: NWS Daily Summary

Daily Weather History Graph

Daily Weather History Graph

Search for Another Location

Airport or City:

Astronomy

Jul. 24, 2019 Rise Set
Actual Time 5:53 AM EDT 8:26 PM EDT
Civil Twilight 5:22 AM EDT 8:57 PM EDT
Nautical Twilight 4:43 AM EDT 9:36 PM EDT
Astronomical Twilight 3:59 AM EDT 10:19 PM EDT
Moon 12:12 AM EDT (7/24) 1:03 PM EDT (7/24)
Length of Visible Light 15h 35m
Length of Day
14h 32m
Waning Gibbous, 54% of the Moon is Illuminated
Jul 24
Waning Gibbous
Jul 24
Last Quarter
Jul 31
New
Aug 7
First Quarter
Aug 15
Full

Hourly Weather History & Observations

Time (EDT) Temp. Heat Index Dew Point Humidity Pressure Visibility Wind Dir Wind Speed Gust Speed Precip Events Conditions
12:54 AM 66.9 °F - 66.0 °F 97% 29.91 in 10.0 mi Calm Calm - N/A   Clear
1:54 AM 66.9 °F - 64.9 °F 93% 29.91 in 10.0 mi WNW 3.5 mph - N/A   Clear
2:54 AM 66.0 °F - 64.9 °F 96% 29.91 in 10.0 mi Calm Calm - N/A   Clear
3:54 AM 64.9 °F - 64.9 °F 100% 29.91 in 10.0 mi Calm Calm - N/A   Clear
4:54 AM 64.0 °F - 64.0 °F 100% 29.93 in 10.0 mi Calm Calm - N/A   Clear
5:39 AM 64.0 °F - 64.0 °F 100% 29.93 in 10.0 mi Calm Calm - N/A   Scattered Clouds
5:54 AM 64.0 °F - 64.0 °F 100% 29.94 in 10.0 mi NW 3.5 mph - N/A   Clear
6:54 AM 64.0 °F - 64.0 °F 100% 29.96 in 10.0 mi Calm Calm - N/A   Clear
7:54 AM 68.0 °F - 64.9 °F 90% 29.97 in 10.0 mi NNW 3.5 mph - N/A   Clear
8:54 AM 72.0 °F - 64.0 °F 76% 29.98 in 10.0 mi North 6.9 mph - N/A   Clear
9:54 AM 75.0 °F - 63.0 °F 66% 29.98 in 10.0 mi North 5.8 mph - N/A   Clear
10:54 AM 78.1 °F - 59.0 °F 52% 29.98 in 10.0 mi NNE 10.4 mph - N/A   Clear
11:54 AM 80.1 °F 80.7 °F 59.0 °F 48% 29.98 in 10.0 mi North 6.9 mph - N/A   Clear
12:54 PM 82.0 °F 82.1 °F 59.0 °F 45% 29.98 in 10.0 mi Variable 4.6 mph 17.3 mph N/A   Partly Cloudy
1:54 PM 82.9 °F 82.4 °F 57.0 °F 41% 29.97 in 10.0 mi Variable 3.5 mph - N/A   Partly Cloudy
2:54 PM 84.0 °F 82.5 °F 53.1 °F 34% 29.97 in 10.0 mi NNW 11.5 mph - N/A   Partly Cloudy
3:54 PM 84.0 °F 82.6 °F 54.0 °F 35% 29.96 in 10.0 mi North 8.1 mph - N/A   Clear
4:54 PM 84.0 °F 82.9 °F 55.0 °F 37% 29.96 in 10.0 mi North 8.1 mph - N/A   Partly Cloudy
5:54 PM 82.9 °F - 52.0 °F 34% 29.96 in 10.0 mi NNW 5.8 mph - N/A   Clear
6:54 PM 82.0 °F 81.4 °F 55.0 °F 39% 29.97 in 10.0 mi NW 5.8 mph - 0.00 in Rain Light Rain
7:54 PM 80.1 °F 80.6 °F 57.9 °F 47% 29.98 in 10.0 mi WNW 4.6 mph - 0.00 in   Clear
8:54 PM 72.0 °F - 64.9 °F 78% 30.00 in 10.0 mi Calm Calm - N/A   Clear
9:54 PM 72.0 °F - 63.0 °F 73% 30.02 in 10.0 mi Calm Calm - N/A   Clear
10:54 PM 69.1 °F - 64.0 °F 84% 30.03 in 10.0 mi Calm Calm - N/A   Partly Cloudy
11:54 PM 68.0 °F - 64.0 °F 87% 30.04 in 10.0 mi NW 6.9 mph - N/A   Clear